This demonstration page uses our WeatherBlox Daily Observations layout. Learn more.

Left ArrowRight Arrow

41.86663, -103.66717

Hourly Observations for April 12, 2021

Temp ( °F °C ) Dew Point ( °F °C ) Humidity (%) Winds ( mph kmh ) Pressure ( in mb ) Visibility ( mi km ) Precip ( " mm )
12:53 am 00:53 Cloudy 37 2.8 16 -8.9 42 42 NW 10 17 30.06 1018 10 16.0934 0 0
1:53 am 01:53 Cloudy 36 2.2 16 -8.9 44 44 NNW 12 19 30.07 1018 10 16.0934 0 0
2:53 am 02:53 Cloudy 35 1.7 18 -7.8 50 50 N 8 13 30.08 1019 10 16.0934 0 0
3:53 am 03:53 Cloudy 33 0.6 17 -8.3 52 52 NW 9 15 30.09 1019 10 16.0934 0 0
4:53 am 04:53 Cloudy 32 0 17 -8.3 54 54 NW 10 17 30.11 1020 10 16.0934 0 0
5:53 am 05:53 Cloudy 32 0 18 -7.8 56 56 NW 10 17 30.12 1020 10 16.0934 0 0
6:53 am 06:53 Cloudy 32 0 18 -7.8 56 56 NW 18 30 30.15 1021 10 16.0934 0 0
7:53 am 07:53 Cloudy 32 0 17 -8.3 54 54 NW 17 28 30.18 1022 10 16.0934 0 0
8:53 am 08:53 Cloudy 36 2.2 16 -8.9 44 44 NW 20 31 30.19 1022 10 16.0934 0 0
9:53 am 09:53 Cloudy 38 3.3 15 -9.4 39 39 NW 22 35 30.18 1022 10 16.0934 0 0
10:53 am 10:53 Mostly Cloudy 39 3.9 14 -10 36 36 NW 21 33 30.17 1022 10 16.0934 0 0
11:53 am 11:53 Cloudy 44 6.7 14 -10 30 30 NW 23 37 30.15 1021 10 16.0934 0 0
12:53 pm 12:53 Cloudy 47 8.3 12 -11.1 24 24 NW 21 33 30.14 1021 10 16.0934 0 0
1:53 pm 13:53 Mostly Cloudy 48 8.9 13 -10.6 24 24 NNW 18 30 30.13 1020 10 16.0934 0 0
2:53 pm 14:53 Partly Cloudy 47 8.3 11 -11.7 23 23 NW 16 26 30.13 1020 10 16.0934 0 0
3:53 pm 15:53 Mostly Sunny 48 8.9 11 -11.7 22 22 NW 22 35 30.13 1020 10 16.0934 0 0
4:53 pm 16:53 Partly Cloudy 47 8.3 10 -12.2 22 22 NNW 20 31 30.14 1021 10 16.0934 0 0
5:53 pm 17:53 Mostly Sunny 46 7.8 10 -12.2 23 23 NW 21 33 30.17 1022 10 16.0934 0 0
6:53 pm 18:53 Sunny 43 6.1 10 -12.2 26 26 NNW 17 28 30.19 1023 10 16.0934 0 0
7:53 pm 19:53 Clear 38 3.3 10 -12.2 31 31 NNW 10 17 30.23 1024 10 16.0934 0 0
8:53 pm 20:53 Clear 33 0.6 10 -12.2 38 38 N 10 17 30.26 1025 10 16.0934 0 0
9:53 pm 21:53 Clear 31 -0.6 12 -11.1 45 45 N 7 11 30.29 1026 10 16.0934 0 0
10:53 pm 22:53 Clear 27 -2.8 12 -11.1 53 53 WNW 6 9 30.32 1027 10 16.0934 0 0
11:53 pm 23:53 Clear 25 -3.9 13 -10.6 60 60 WNW 5 7 30.32 1027 10 16.0934 0 0

Powered by AerisWeather